sat.trackr.live / text

‹ back to catalog

STARLINK-31599

NORAD 59327 · 2024-057H

PAYLOAD ACTIVE UNKNOWN

§ Identity

Operator
Country
US
Launch date
2024-03-25
Launch site
AFETR
Launch vehicle
Mass (kg)
RCS (m²)

Purposes: comms

External: N2YO · Heavens-Above · Gunter

§ Orbital elements

Epoch: 2026-05-25T04:55:15.581280Z

Period
94.27 min
Inclination
42.9997°
Eccentricity
0.0001221
Mean motion
15.27584024 rev/d
Perigee alt
482.2 km
Apogee alt
483.9 km
Semi-major
6,861.2 km
B*
-5.4526e-5
RAAN
114.7386°
Arg perigee
256.8343°
Mean anomaly
103.2372°
Rev number
12,154

§ Raw data

STARLINK-315991 59327U 24057H   26145.20504145 -.00001762  00000+0 -54526-4 0  99962 59327  42.9997 114.7386 0001221 256.8343 103.2372 15.27584024121544

JSON: /api/v1/satellites/59327 · /tle

For live sub-satellite position, see the globe view (requires WebGL).

§ Visibility from observer

Set your observer location to see the next 7 days of passes ≥ 10°. The values pass through the URL so the page stays shareable.

No JS? Fill the form by hand. The geolocation button needs JavaScript.